www.pogodaiklimat.ru

Погода и климат >> Архив погоды >> Италия >> Казале-Монферрато


ПОГОДА в Казале-Монферрато

  • Прогноз погоды в Казале-Монферрато
  • Монитор погоды в Казале-Монферрато

АРХИВ ПОГОДЫ в Казале-Монферрато

Время (UTC), дата Ветер
(напр.,м/с)
 
Видим.   Явления Облачность Т
(С)
Тd
(С)
f
(%)
Тe
(С)
Тes
(С)
Комфортность P
(гПа)
Po
(гПа)
Тmin
(С)
Tmax
(С)
R
(мм)
R24
(мм)
S
(см)
19 11.08 З 1 н/о н/о +24.3 +22.9 92
20 11.08 З 1 н/о н/о +23.2 +21.8 92
21 11.08 штиль 0 н/о н/о +22.8 +21.6 93
22 11.08 штиль 0 н/о н/о +22.4 +21.2 93
23 11.08 штиль 0 н/о н/о +22.1 +20.9 93 +29 +29 очень
душно
1012.4 999.1
00 12.08 штиль 0 н/о н/о +22.8 +21.6 93 +30 +30 очень
душно
1012.1 998.8
01 12.08 штиль 0 н/о н/о +22.8 +21.4 92 +30 +30 очень
душно
1012.0 998.7
02 12.08 штиль 0 н/о н/о +22.3 +20.9 92 +29 +29 очень
душно
1011.8 998.5
03 12.08 штиль 0 н/о н/о +21.5 +20.3 93 +27 +27 душно 1012.1 998.7
04 12.08 штиль 0 н/о н/о +21.6 +20.5 93 +27 +27 душно 1011.7 998.3
05 12.08 штиль 0 н/о н/о +21.6 +20.5 93 +27 +27 душно 1011.9 998.5
06 12.08 штиль 0 н/о н/о +21.9 +20.8 93 +28 +28 душно 1012.5 999.1 +21.4 0
07 12.08 С 1 н/о н/о +22.6 +21.5 94 +30 +30 очень
душно
1011.1 997.8
08 12.08 В 1 н/о н/о +24.3 +22.9 92 +32 +32 очень
душно
1011.5 998.3
09 12.08 В 1 н/о н/о +25.3 +23.9 92 +35 +35 очень
душно
1011.9 998.7
10 12.08 В 2 н/о н/о +27.4 +24.6 85 +39 +39 очень
душно
1011.3 998.2
11 12.08 ЮВ 3 н/о н/о +29.9 +24.3 72
12 12.08 В 4 н/о н/о +28.8 +24.7 79
13 12.08 В 3 н/о н/о +30.8 +24.7 70
14 12.08 В 6 н/о н/о +29.6 +24.4 74
15 12.08 СЗ 8 н/о н/о +22.5 +20.0 86
16 12.08 Ю 4 н/о н/о +22.0 +20.9 93
17 12.08 Ю 3 н/о н/о +22.4 +20.8 91
18 12.08 СЗ 4 н/о н/о +22.9 +21.5 92 +31.1 23
19 12.08 С 2 н/о н/о +22.1 +20.9 93 +29 +29 очень
душно
1010.7 997.4
20 12.08 С 1 н/о н/о +21.4 +20.2 93 +27 +27 душно 1012.2 998.8
21 12.08 С 2 н/о н/о +20.9 +19.7 93 +26 +26 душно 1012.9 999.5
22 12.08 СЗ 1 н/о н/о +20.3 +18.9 92 +25 +25 комфорт 1013.1 999.7
23 12.08 СЗ 1 н/о н/о +19.7 +18.3 92 +23 +23 комфорт 1013.2 999.7
00 13.08 СЗ 1 н/о н/о +19.6 +18.2 92 +23 +23 комфорт 1012.9 999.4
01 13.08 З 1 н/о н/о +19.2 +17.8 92 +23 +23 комфорт 1012.8 999.3
02 13.08 ЮЗ 1 н/о н/о +18.4 +17.0 92 +21 +21 комфорт 1012.6 999.1
03 13.08 штиль 0 н/о н/о +17.6 +16.2 91 +18 +18 1012.6 999.0
04 13.08 З 1 н/о н/о +17.5 +16.3 93 +19 +19 1012.6 999.0
05 13.08 З 1 н/о н/о +17.1 +15.9 93 +19 +19 1012.8 999.2
06 13.08 С 1 н/о н/о +18.8 +17.8 94 +22 +22 комфорт 1013.0 999.5 +17.1 1
07 13.08 ЮЗ 1 н/о н/о +20.3 +19.1 93 +26 +26 душно 1013.1 999.7
08 13.08 С 1 н/о н/о +23.0 +19.1 79 +29 +29 очень
душно
1013.0 999.7
09 13.08 Ю 1 н/о н/о +24.8 +19.3 71 +30 +30 душно 1012.5 999.3
10 13.08 ЮЗ 1 н/о н/о +26.1 +18.7 64 +31 +31 очень
душно
1012.5 999.3
11 13.08 З 1 н/о н/о +27.8 +19.5 61
12 13.08 СЗ 2 н/о н/о +28.1 +16.3 49
13 13.08 СЗ 3 н/о н/о +28.1 +14.6 44
14 13.08 СЗ 2 н/о н/о +27.6 +15.2 47
15 13.08 З 2 н/о н/о +28.3 +15.2 45
16 13.08 СЗ 2 н/о н/о +28.3 +13.4 40
17 13.08 З 1 н/о н/о +28.0 +15.2 46
18 13.08 З 1 н/о н/о +27.1 +15.4 49 +29.1
19 13.08 З 2 н/о н/о +24.6 +15.7 58
20 13.08 З 2 н/о н/о +22.1 +15.1 65
21 13.08 З 2 н/о н/о +21.2 +15.0 68
22 13.08 СЗ 3 н/о н/о +21.3 +16.6 75 +25 +25 комфорт 1011.2 997.8
23 13.08 З 1 н/о н/о +20.7 +15.2 71 +25 +25 комфорт 1011.3 997.9
00 14.08 З 2 н/о н/о +19.5 +14.9 75 +22 +22 комфорт 1011.5 998.0
01 14.08 З 1 н/о н/о +18.0 +14.4 79 +19 +19 1011.7 998.2
02 14.08 З 1 н/о н/о +17.3 +14.1 81 +18 +18 1011.8 998.2
03 14.08 З 1 н/о н/о +16.3 +13.7 85 +18 +18 1012.1 998.5
04 14.08 З 1 н/о н/о +15.6 +11.9 79 +16 +16 1012.2 998.6
05 14.08 СЗ 2 н/о н/о +19.2 +10.9 59 +21 +21 комфорт 1012.6 999.1
06 14.08 С 2 н/о н/о +20.7 +11.6 56 +24 +24 комфорт 1013.1 999.7 +15.2 503
07 14.08 СЗ 3 н/о н/о +21.8 +10.9 50 +24 +24 комфорт 1013.7 1000.3
08 14.08 СЗ 3 н/о н/о +21.5 +13.6 61 +24 +24 комфорт 1014.1 1000.7
09 14.08 С 4 н/о н/о +23.3 +14.8 59 +27 +27 душно 1014.7 1001.4
10 14.08 С 3 н/о н/о +24.6 +17.8 66 +29 +29 душно 1014.9 1001.6
11 14.08 СВ 3 н/о н/о +26.0 +19.8 69 +32 +32 очень
душно
1014.8 1001.6
12 14.08 С 3 н/о н/о +26.5 +20.1 68
13 14.08 СВ 3 н/о н/о +27.2 +16.4 52
14 14.08 СВ 3 н/о н/о +27.6 +17.4 54
15 14.08 СВ 2 н/о н/о +27.8 +17.0 52
16 14.08 С 1 н/о н/о +27.9 +15.8 48
17 14.08 С 2 н/о н/о +27.5 +15.5 48
18 14.08 СЗ 1 н/о н/о +26.9 +14.9 48 +28.1
19 14.08 З 1 н/о н/о +23.0 +15.0 61
20 14.08 З 1 н/о н/о +20.5 +15.4 73
21 14.08 З 1 н/о н/о +19.2 +15.4 79
22 14.08 З 2 н/о н/о +18.7 +15.5 82 +20 +20 1015.4 1001.9
23 14.08 З 1 н/о н/о +18.0 +15.6 86 +20 +20 1015.9 1002.3
00 15.08 З 1 н/о н/о +18.0 +16.3 90 +19 +19 1016.2 1002.6
01 15.08 СЗ 1 н/о н/о +17.8 +15.5 86 +19 +19 1016.4 1002.8
02 15.08 СЗ 2 н/о н/о +17.8 +15.5 86 +18 +18 1016.5 1002.9
03 15.08 СЗ 2 н/о н/о +17.7 +15.8 89 +18 +18 1016.3 1002.7
04 15.08 СЗ 2 н/о н/о +17.5 +15.6 89 +18 +18 1016.4 1002.8
05 15.08 С 2 н/о н/о +17.7 +15.8 89 +18 +18 1016.5 1002.9
06 15.08 С 2 н/о н/о +18.6 +16.5 88 +20 +20 1016.6 1003.0 +16.8 503
07 15.08 С 1 н/о н/о +19.6 +17.1 85 +23 +23 комфорт 1017.0 1003.5
08 15.08 С 2 н/о н/о +19.9 +17.6 87 +23 +23 комфорт 1017.0 1003.5
09 15.08 СВ 2 н/о н/о +22.3 +19.2 83 +28 +28 душно 1016.6 1003.2
10 15.08 В 2 н/о н/о +24.0 +19.7 77 +29 +29 душно 1016.1 1002.8
11 15.08 ЮВ 1 н/о н/о +24.9 +19.9 74 +30 +30 душно 1015.8 1002.5
12 15.08 СВ 3 н/о н/о +25.5 +20.0 72
13 15.08 ЮВ 2 н/о н/о +26.3 +18.9 64
14 15.08 ЮВ 3 н/о н/о +27.5 +18.7 59
15 15.08 ЮВ 2 н/о н/о +28.0 +17.5 53
16 15.08 ЮВ 2 н/о н/о +28.0 +17.2 52
17 15.08 С 2 н/о н/о +27.2 +17.3 55
18 15.08 СЗ 2 н/о н/о +26.4 +17.7 59 +28.6
19 15.08 З 1 н/о н/о +24.4 +17.1 64
20 15.08 ЮЗ 1 н/о н/о +22.2 +17.7 76
21 15.08 ЮЗ 1 н/о н/о +20.5 +17.4 82
22 15.08 З 1 н/о н/о +19.9 +17.6 87
23 15.08 З 1 н/о н/о +19.3 +17.4 89 +22 +22 комфорт 1014.1 1000.6
00 16.08 штиль 0 н/о н/о +18.2 +16.5 90 +19 +19 1014.2 1000.6
01 16.08 СЗ 1 н/о н/о +18.3 +16.7 90 +20 +20 1014.6 1001.1
02 16.08 СЗ 1 н/о н/о +18.7 +17.1 90 +21 +21 комфорт 1015.0 1001.5
03 16.08 СЗ 1 н/о н/о +19.0 +17.3 90 +22 +22 комфорт 1015.3 1001.8
04 16.08 С 2 н/о н/о +19.4 +17.3 88 +22 +22 комфорт 1015.7 1002.2
05 16.08 СЗ 3 н/о н/о +18.9 +17.2 90 +21 +21 комфорт 1016.2 1002.7
06 16.08 С 3 н/о н/о +18.7 +17.0 90 +20 +20 1017.0 1003.4 +17.7 406
07 16.08 С 2 н/о н/о +19.3 +17.7 90 +22 +22 комфорт 1017.3 1003.8
08 16.08 С 3 н/о н/о +20.5 +18.6 89 +25 +25 комфорт 1017.6 1004.1
09 16.08 С 3 н/о н/о +21.7 +18.2 80 +26 +26 душно 1017.6 1004.2
10 16.08 СВ 2 н/о н/о +23.5 +18.3 73 +28 +28 душно 1017.4 1004.0
11 16.08 СВ 3 н/о н/о +24.8 +19.1 71 +30 +30 душно 1017.1 1003.8
12 16.08 СВ 2 н/о н/о +25.9 +19.5 68
13 16.08 В 2 н/о н/о +26.7 +19.8 66
14 16.08 С 1 н/о н/о +27.2 +20.5 67
15 16.08 ЮВ 2 н/о н/о +27.8 +20.1 63
16 16.08 СВ 2 н/о н/о +27.5 +19.5 62
17 16.08 СВ 2 н/о н/о +27.0 +19.3 63
18 16.08 С 2 н/о н/о +26.1 +18.7 64 +28.1
19 16.08 СЗ 1 н/о н/о +24.3 +18.4 70
20 16.08 штиль 0 н/о н/о +22.3 +18.2 78
21 16.08 З 1 н/о н/о +21.6 +18.9 85
22 16.08 З 1 н/о н/о +20.7 +18.4 87
23 16.08 С 2 н/о н/о +20.6 +18.8 89 +25 +25 комфорт 1016.7 1003.3
00 17.08 С 2 н/о н/о +21.4 +18.9 86 +26 +26 душно 1016.7 1003.3
01 17.08 СЗ 2 н/о н/о +21.1 +18.2 84 +25 +25 комфорт 1016.6 1003.1
02 17.08 СЗ 1 н/о н/о +20.3 +17.4 83 +25 +25 комфорт 1016.3 1002.8
03 17.08 С 2 н/о н/о +19.9 +17.2 84 +23 +23 комфорт 1016.4 1002.9
04 17.08 СЗ 2 н/о н/о +19.7 +17.4 87 +23 +23 комфорт 1016.7 1003.2
05 17.08 СЗ 1 н/о н/о +19.6 +17.5 88 +23 +23 комфорт 1016.8 1003.3
06 17.08 СЗ 2 н/о н/о +20.1 +17.8 87 +24 +24 комфорт 1016.9 1003.4 +19.6 303
07 17.08 С 2 н/о н/о +20.5 +18.7 89 +25 +25 комфорт 1017.4 1003.9
08 17.08 С 2 н/о н/о +22.5 +19.2 82 +28 +28 душно 1017.4 1004.0
09 17.08 С 2 н/о н/о +23.4 +19.5 79 +30 +30 очень
душно
1017.4 1004.0
10 17.08 СВ 2 н/о н/о +25.1 +20.1 74 +31 +31 очень
душно
1017.1 1003.8
11 17.08 С 2 н/о н/о +26.4 +19.5 66
12 17.08 СВ 2 н/о н/о +27.1 +19.9 65
13 17.08 З 1 н/о н/о +28.1 +19.3 59
14 17.08 СВ 3 н/о н/о +27.8 +18.7 58
15 17.08 СВ 3 н/о н/о +28.0 +20.0 62
16 17.08 СВ 3 н/о н/о +27.7 +19.2 60
17 17.08 СВ 2 н/о н/о +27.5 +20.0 64
18 17.08 СВ 1 н/о н/о +25.7 +20.2 72 +28.6
19 17.08 ЮЗ 1 н/о н/о +24.5 +19.9 76
20 17.08 З 1 н/о н/о +23.5 +19.8 80
21 17.08 штиль 0 н/о н/о +22.5 +19.6 84
22 17.08 З 2 н/о н/о +21.7 +18.8 84
23 17.08 ЮЗ 1 н/о н/о +21.3 +18.8 86 +26 +26 душно 1015.9 1002.5
00 18.08 штиль 0 н/о н/о +19.8 +17.7 88 +22 +22 комфорт 1015.8 1002.3
01 18.08 С 1 н/о н/о +19.2 +17.5 90 +23 +23 комфорт 1015.7 1002.2
02 18.08 штиль 0 н/о н/о +18.8 +17.2 90 +20 +20 1015.6 1002.1
03 18.08 З 1 н/о н/о +18.5 +17.1 92 +20 +20 1015.5 1001.9
04 18.08 штиль 0 н/о н/о +18.1 +16.7 92 +18 +18 1015.6 1002.0
05 18.08 З 1 н/о н/о +17.7 +16.3 92 +19 +19 1015.7 1002.1
06 18.08 штиль 0 н/о н/о +19.1 +17.9 93 +21 +21 комфорт 1015.8 1002.3 +17.2 0
07 18.08 штиль 0 н/о н/о +22.3 +20.9 92 +29 +29 очень
душно
1016.0 1002.6
08 18.08 СЗ 1 н/о н/о +24.0 +22.2 90 +31 +31 очень
душно
1015.9 1002.6
09 18.08 СЗ 1 н/о н/о +26.5 +22.7 80 +35 +35 очень
душно
1015.7 1002.5
10 18.08 СВ 2 н/о н/о +27.1 +22.7 77
11 18.08 В 2 н/о н/о +28.1 +20.8 65
12 18.08 СВ 2 н/о н/о +28.0 +21.0 66
13 18.08 С 2 н/о н/о +27.9 +21.4 68
14 18.08 СВ 2 н/о н/о +28.5 +21.2 65
15 18.08 СВ 2 н/о н/о +28.3 +22.3 70
16 18.08 СВ 2 н/о н/о +28.1 +21.6 68
17 18.08 ЮВ 1 н/о н/о +27.8 +21.5 69
18 18.08 Ю 3 н/о н/о +27.0 +21.5 72 +29.1

 

Местоположение метеостанции Казале-Монферрато (Италия): широта 45.13 долгота 8.45 высота над уровнем моря 119 м.

В архиве по умолчанию представлена погода в Казале-Монферрато за последнюю неделю. Архивные данные за месяц целиком и за предыдущие месяцы, начиная с января 2011 года, Вы можете получить, выбрав интересующий диапазон дат из раскрывающегося списка и нажав кнопку "Ввод!".


*Определитесь, кто Вы:
робот инопланетянин человек

Внимание! Время в таблицах - всемирное. Для получения местного времени необходимо прибавить поправку, которая равна 1 ч.

Смотрите также архив погоды в соседних городах и на ближайших метеорологических станциях:

Погода в Новара (Италия) (47 км)
Погода в Турине Брик Делла Крос (Италия) (58 км)
Погода в Аэропорту Мальпенса (Италия) (59 км)
Погода в Турине (Италия) (64 км)
Погода в Турине Венария (Италия) (65 км)
Погода в Милане (Италия) (73 км)
Погода на Пассо-деи-Джиови (Италия) (75 км)
Погода в Генуе (Италия) (85 км)
Погода в Стабио (Швейцария) (88 км)
Погода в Мондови (Италия) (97 км)

Пояснения к столбцам:

Ветер - указаны скорость ветра в м/с - средняя за 10 мин, порывы в срок и между сроками (в фигурных скобках) и направление, откуда дует ветер: С - северный, СВ - северо-восточный, В - восточный, ЮВ - юго-восточный, Ю - южный, ЮЗ - юго-западный, З - западный, СЗ - северо-западный.
Видимость - горизонтальная дальность видимости в метрах или километрах. При видимости от 1 до 10 км при отсутствии осадков обычно наблюдается дымка, при ухудшении видимости до 1 км и менее - туман. В сухую погоду видимость может ухудшаться дымом, пылью или мглою.
Явления - указаны атмосферные явления, наблюдавшиеся в срок или в последний час перед сроком; фигурными скобками обозначены явления, наблюдавшиеся между сроками (за 1-3 часа до срока); квадратными скобками обозначены град или гололедные отложения с указанием их диаметра в мм.
Облачность - указаны через наклонную черту общая и нижняя облачность в баллах и высота нижней границы облаков в метрах; квадратными скобками обозначены формы облаков: Ci - перистые, Cs - перисто-слоистые, Cc - перисто-кучевые, Ac - высококучевые, As - высокослоистые, Sc - слоисто-кучевые, Ns - слоисто-дождевые, Cu - кучевые, Cb - кучево-дождевые. Подробнее классификацию облаков см. в Атласе облаков (PDF).
T - Температура воздуха - температура, измеренная на высоте 2 м над землей.
Td - Температура точки росы - температура, при понижении до которой содержащийся в воздухе водяной пар достигнет насыщения.
f - Относительная влажность воздуха - влажноcть воздуха, измеренная на высоте 2 м над землей.
Te - Эффективная температура - температура, которую ощущает одетый по сезону человек в тени. Характеристика душности погоды. При расчете учитывается влияние влажности воздуха и скорости ветра на теплоощущения человека.
Tes - Эффективная температура на солнце - температура, которую ощущает человек, с поправкой на солнечный нагрев. Характеристика знойности погоды. Зависит от высоты солнца над горизонтом, облачности и скорости ветра. Ночью, в пасмурную погоду, а также при ветре 12 м/с и более поправка равна нулю.
P - Атмосферное давление - приведенное к уровню моря атмосферное давление.
Po - Атмосферное давление - измеренное на уровне метеостанции атмосферное давление.
Tmin - Минимальная температура - минимум температуры воздуха на высоте 2 м над землей.
Tmax - Максимальная температура - максимум температуры воздуха на высоте 2 м над землей.
R - Количество осадков - Количество выпавших осадков за период времени, мм. При наведении курсора мыши на число - период времени, за который выпало указанное количество осадков.
R24 - Количество осадков - Количество выпавших осадков за 24 часа, мм.
S - Снежный покров - Высота снежного покрова, см. При наведении курсора мыши на число - состояние снежного покрова и степень покрытия местности в баллах.